Weather History for Lampasas, TX

Change the Weather History Date:

Saturday, October 13, 2012

  Actual Average (KGRK) Record (KGRK)
Temperature  
Mean Temperature 76 °F -  
Max Temperature 80 °F 77 °F 91 °F (1999)
Min Temperature 71 °F 57 °F 50 °F (2006)
Cooling Degree Days 10    
Growing Degree Days 26 (Base 50)    
Moisture  
Dew Point 68 °F    
Average Humidity 76    
Maximum Humidity 88    
Minimum Humidity 61    
Precipitation  
Precipitation 0.00 in - - ()
Sea Level Pressure  
Sea Level Pressure 29.99 in    
Wind  
Wind Speed 10 mph (SSE)    
Max Wind Speed 16 mph    
Max Gust Speed 22 mph    
Visibility 10 miles    
Events Rain , Thunderstorm    
Averages and records for this station are not official NWS values.
T = Trace of Precipitation, MM = Missing Value Source: NWS Daily Summary

Daily Weather History Graph

Daily Weather History Graph

Search for Another Location

Airport:

Trip Planner

Search our weather history database for the weather conditions in past years. The results will help you decide how hot, cold, wet, or windy it might be!

Date:

Astronomy

Oct. 13, 2012 Rise Set
Actual Time 7:34 AM CDT 7:02 PM CDT
Civil Twilight 7:10 AM CDT 7:27 PM CDT
Nautical Twilight 6:42 AM CDT 7:55 PM CDT
Astronomical Twilight 6:14 AM CDT 8:23 PM CDT
Moon 5:32 AM CDT (10/13) 5:43 PM CDT (10/13)
Length of Visible Light 12h 16m
Length of Day
11h 28m
Waning Crescent, 5% of the Moon is Illuminated
Oct 13
Waning Crescent
Oct 15
New
Oct 21
First Quarter
Oct 29
Full
Nov 6
Last Quarter

Hourly Weather History & Observations

Time (CDT) Temp. Heat Index Dew Point Humidity Pressure Visibility Wind Dir Wind Speed Gust Speed Precip Events Conditions
12:55 AM 73.4 °F - 66.2 °F 78% 30.09 in 10.0 mi SSE 10.4 mph - N/A   Mostly Cloudy
1:15 AM 75.2 °F - 68.0 °F 78% 30.09 in 10.0 mi SSE 8.1 mph - N/A   Overcast
1:35 AM 75.2 °F - 68.0 °F 78% 30.08 in 10.0 mi SSE 8.1 mph - N/A   Overcast
1:55 AM 75.2 °F - 68.0 °F 78% 30.07 in 10.0 mi SSE 11.5 mph 16.1 mph N/A   Overcast
2:15 AM 75.2 °F - 68.0 °F 78% 30.07 in 10.0 mi South 9.2 mph 17.3 mph N/A   Overcast
2:35 AM 75.2 °F - 68.0 °F 78% 30.07 in 10.0 mi South 6.9 mph - N/A   Overcast
2:55 AM 75.2 °F - 68.0 °F 78% 30.07 in 10.0 mi SSE 10.4 mph 19.6 mph N/A   Overcast
3:15 AM 75.2 °F - 68.0 °F 78% 30.06 in 10.0 mi SSE 10.4 mph - N/A   Overcast
3:35 AM 75.2 °F - 68.0 °F 78% 30.04 in 10.0 mi SSE 11.5 mph 16.1 mph N/A   Scattered Clouds
3:55 AM 75.2 °F - 68.0 °F 78% 30.05 in 10.0 mi SSE 13.8 mph 17.3 mph N/A   Mostly Cloudy
4:15 AM 75.2 °F - 68.0 °F 78% 30.04 in 10.0 mi SSE 11.5 mph 18.4 mph N/A   Overcast
4:35 AM 75.2 °F - 68.0 °F 78% 30.04 in 10.0 mi South 9.2 mph - N/A   Overcast
4:55 AM 75.2 °F - 68.0 °F 78% 30.04 in 10.0 mi South 10.4 mph 16.1 mph N/A   Overcast
5:15 AM 75.2 °F - 68.0 °F 78% 30.03 in 10.0 mi SSE 11.5 mph 17.3 mph N/A   Overcast
5:35 AM 71.6 °F - 66.2 °F 83% 30.04 in 10.0 mi South 8.1 mph - N/A   Overcast
5:55 AM 71.6 °F - 66.2 °F 83% 30.04 in 10.0 mi SSE 8.1 mph - N/A   Overcast
6:15 AM 75.2 °F - 69.8 °F 83% 30.04 in 10.0 mi SSE 9.2 mph - N/A   Overcast
6:35 AM 73.4 °F - 69.8 °F 88% 30.04 in 10.0 mi South 9.2 mph - N/A   Overcast
6:55 AM 75.2 °F - 69.8 °F 83% 30.03 in 10.0 mi SSE 11.5 mph 16.1 mph N/A   Overcast
7:15 AM 75.2 °F - 69.8 °F 83% 30.03 in 10.0 mi SSE 10.4 mph - N/A   Overcast
7:35 AM 75.2 °F - 69.8 °F 83% 30.03 in 10.0 mi SSE 11.5 mph 16.1 mph N/A   Overcast
7:55 AM 75.2 °F - 68.0 °F 78% 30.04 in 10.0 mi South 11.5 mph 18.4 mph N/A   Overcast
8:15 AM 75.2 °F - 68.0 °F 78% 30.04 in 10.0 mi SSE 12.7 mph 19.6 mph N/A   Overcast
8:55 AM 75.2 °F - 68.0 °F 78% 30.05 in 10.0 mi South 8.1 mph 21.9 mph N/A   Scattered Clouds
9:35 AM 75.2 °F - 64.4 °F 69% 30.06 in 10.0 mi South 16.1 mph 19.6 mph N/A   Mostly Cloudy
9:55 AM 77.0 °F - 66.2 °F 69% 30.06 in 10.0 mi South 10.4 mph 17.3 mph N/A   Overcast
10:35 AM 77.0 °F - 64.4 °F 65% 30.06 in 10.0 mi South 15.0 mph 21.9 mph N/A   Overcast
10:55 AM 77.0 °F - 66.2 °F 69% 30.05 in 10.0 mi South 12.7 mph 18.4 mph N/A   Overcast
11:15 AM 77.0 °F - 66.2 °F 69% 30.04 in 10.0 mi South 9.2 mph 19.6 mph N/A   Overcast
11:35 AM 77.0 °F - 68.0 °F 74% 30.03 in 10.0 mi South 10.4 mph 18.4 mph N/A   Overcast
11:55 AM 77.0 °F - 68.0 °F 74% 30.03 in 10.0 mi South 11.5 mph 18.4 mph N/A   Overcast
12:15 PM 77.0 °F - 68.0 °F 74% 30.03 in 10.0 mi SSE 11.5 mph - N/A   Overcast
12:35 PM 77.0 °F - 68.0 °F 74% 30.02 in 10.0 mi South 12.7 mph 18.4 mph N/A   Overcast
12:55 PM 77.0 °F - 68.0 °F 74% 30.01 in 10.0 mi SSE 12.7 mph - N/A   Overcast
1:15 PM 77.0 °F - 68.0 °F 74% 30.00 in 10.0 mi SSE 10.4 mph - N/A   Overcast
1:35 PM 77.0 °F - 68.0 °F 74% 29.99 in 10.0 mi South 11.5 mph 17.3 mph N/A Thunderstorm Overcast
1:55 PM 75.2 °F - 68.0 °F 78% 29.97 in 10.0 mi SSE 9.2 mph - N/A Rain Light Rain
2:15 PM 77.0 °F - 69.8 °F 78% 29.97 in 10.0 mi South 9.2 mph 18.4 mph N/A   Light Drizzle
2:35 PM 77.0 °F - 68.0 °F 74% 29.96 in 10.0 mi South 12.7 mph 16.1 mph N/A Thunderstorm Scattered Clouds
2:55 PM 77.0 °F - 68.0 °F 74% 29.94 in 10.0 mi SSE 8.1 mph - N/A   Clear
3:15 PM 78.8 °F - 68.0 °F 69% 29.94 in 10.0 mi South 13.8 mph 17.3 mph N/A   Scattered Clouds
3:35 PM 80.6 °F 83.9 °F 69.8 °F 70% 29.94 in 10.0 mi South 8.1 mph - N/A   Mostly Cloudy
3:55 PM 80.6 °F 83.9 °F 69.8 °F 70% 29.93 in 10.0 mi SSE 9.2 mph 17.3 mph N/A   Overcast
4:15 PM 80.6 °F 83.2 °F 68.0 °F 65% 29.92 in 10.0 mi South 11.5 mph 17.3 mph N/A   Mostly Cloudy
4:35 PM 80.6 °F 83.2 °F 68.0 °F 65% 29.91 in 10.0 mi SSE 10.4 mph 17.3 mph N/A   Scattered Clouds
4:55 PM 80.6 °F 83.2 °F 68.0 °F 65% 29.90 in 10.0 mi South 12.7 mph 18.4 mph N/A   Mostly Cloudy
5:15 PM 80.6 °F 82.7 °F 66.2 °F 61% 29.89 in 10.0 mi South 13.8 mph 20.7 mph N/A Thunderstorm Mostly Cloudy
5:35 PM 80.6 °F 83.2 °F 68.0 °F 65% 29.88 in 10.0 mi South 10.4 mph 19.6 mph N/A   Mostly Cloudy
5:55 PM 80.6 °F 83.2 °F 68.0 °F 65% 29.88 in 10.0 mi South 13.8 mph 19.6 mph N/A   Scattered Clouds
6:15 PM 80.6 °F 83.2 °F 68.0 °F 65% 29.88 in 10.0 mi SSE 9.2 mph - N/A   Clear
6:35 PM 80.6 °F 83.9 °F 69.8 °F 70% 29.89 in 10.0 mi South 6.9 mph - N/A   Scattered Clouds
7:15 PM 77.0 °F - 69.8 °F 78% 29.89 in 10.0 mi SE 6.9 mph - N/A   Mostly Cloudy
7:35 PM 77.0 °F - 69.8 °F 78% 29.89 in 10.0 mi SE 9.2 mph - N/A   Clear
7:55 PM 77.0 °F - 71.6 °F 83% 29.91 in 10.0 mi SE 8.1 mph - N/A   Scattered Clouds
8:35 PM 77.0 °F - 71.6 °F 83% 29.92 in 10.0 mi SE 6.9 mph - N/A   Overcast
8:55 PM 77.0 °F - 71.6 °F 83% 29.93 in 10.0 mi SE 6.9 mph - N/A   Overcast
9:15 PM 77.0 °F - 71.6 °F 83% 29.94 in 10.0 mi SE 9.2 mph - N/A   Overcast
9:35 PM 77.0 °F - 71.6 °F 83% 29.94 in 10.0 mi SE 12.7 mph - N/A   Overcast
9:55 PM 77.0 °F - 71.6 °F 83% 29.95 in 10.0 mi SSE 11.5 mph - N/A   Overcast
10:15 PM 77.0 °F - 71.6 °F 83% 29.95 in 10.0 mi South 10.4 mph 20.7 mph N/A   Overcast
11:15 PM 77.0 °F - 69.8 °F 78% 29.95 in 10.0 mi South 15.0 mph - N/A   Overcast
11:35 PM 77.0 °F - 69.8 °F 78% 29.96 in 10.0 mi SSE 10.4 mph - N/A   Overcast